Location: Newark
(46.7000°N, 60.6000°W)
Time: 10:14:27
(UTC+00:00)

Transit 2A Rocket - Pass Details

Date: 28 October 2020
Orbit: 588 x 915 km, 66.7° (Epoch: 23 November)

Event Time Altitude Azimuth Distance (km) Brightness Sun altitude
Rises 15:48:37 0° 263° (W) 3,539 8.5 29.9°
Reaches altitude 10° 15:51:51 10° 279° (W) 2,579 7.7 29.9°
Maximum altitude 15:56:16 21° 326° (NNW) 1,887 6.8 29.8°
Drops below altitude 10° 16:00:32 10° 14° (NNE) 2,476 7.2 29.8°
Sets 16:03:35 0° 31° (NNE) 3,357 7.8 29.7°
